{"data":{"norad_id":59028,"epoch":"2026-09-20T09:29:32.750880Z","epoch_age_seconds":165409,"freshness":"FRESH","line1":"1 59028U 24038F   26263.39551795  .00000803  00000+0  38671-4 0  9993","line2":"2 59028  43.0003 302.4252 0000686 278.2466  81.8308 15.27584040145306","mean_motion":15.2758404,"eccentricity":6.86e-5,"inclination_deg":43.0003,"raan_deg":302.4252,"arg_perigee_deg":278.2466,"mean_anomaly_deg":81.8308,"bstar":3.8671e-5,"rev_number":14530,"period_min":94.266499406475,"perigee_km":482.56632231661,"apogee_km":483.50767538925,"semimajor_km":6861.1739988529,"source":"CELESTRAK","updated_at":"2026-09-21T09:00:34.028819Z"}}